Погода в Ваховске

Россия / Ханты-Мансийский автономный округ - Югра     60°57′13″N   78°47′02″E
темп.,
°C
ветер,
м/с
пор.,
м/с
влажн.,
%
обл.,
%
осадки,
мм/ч
давл.,
гПа
погр.,
м
12 апреля, пн
пн1223:00+3юз51496100 3.8 1024544
02:00+3юз51498100 1.4 1021504
05:00+3зюз51398100 2.4 1021503
08:00+3зюз41198100 0.2 1020548
11:00+4зсз598384 0.3 1021801
14:00+4зсз5983100 0.1 1022947
17:00+3з497620 0.1 1024824
20:00+1з4108944 0.0 1024382
13 апреля, вт
вт1323:00+1зсз5980100 0.0 1025860
02:000з411915 0.0 1025394
05:00−1з5129261 0.0 1026575
08:00+1з6128099 0.0 10261125
11:00+3з61271100 0.2 10261582
14:00+4з61371100 0.1 10251452
17:00+3зсз6128391 0.3 10251114
20:00+2зсз41075100 0.1 1025610
14 апреля, ср
ср1423:00+1зюз41096100 0.1 1024423
02:00+1зюз3898100 0.1 1022432
05:000ююз27100100 2.3 1019228
08:00+1зюз31099100 3.1 1017675
11:00+2зсз3999100 3.2 1017701
14:00+2зсз4998100 0.0 1019716
17:00+1ссз3695100 0.1 1021540
20:00+1сз2590100 0.0 1023143
15 апреля, чт
чт1523:00+1з2385100 0.0 102383
02:000ююз2690100 0.0 1021208
05:00+1ююз41197100 0.0 1019328
08:00+3ююз61695100 0.4 1015521
11:00+7юз61591100 0.6 1011663
14:00+13зюз7157383 0.0 10081166
17:00+13зюз7156657 0.0 1006822
20:00+10сз61374100 0.1 1007471
16 апреля, пт
пт1623:00+2сз41184100 0.2 1010836
02:00+1зсз4882100 0.1 1011805
05:00−2с5883100 0.1 1014560
08:00−4ссз586496 0.0 1014950
11:00−2ссз6751100 0.0 10161368
14:00−4с6745100 0.0 10181346
17:00−6с5743100 0.0 10201274
20:00−8с5847100 0.0 10221039